Year,Month,Day,Hour,Minute,Value (Times are PST for temperature in C)
2013,07,14,09,26,18.90
2013,07,14,09,27,18.80
2013,07,14,09,28,18.70
2013,07,14,09,29,18.70
2013,07,14,09,30,18.60
2013,07,14,09,31,18.60
2013,07,14,09,32,18.50
2013,07,14,09,33,18.60
2013,07,14,09,34,18.60
2013,07,14,09,35,18.50
2013,07,14,09,36,18.60
2013,07,14,09,37,18.70
2013,07,14,09,38,18.80
2013,07,14,09,39,18.90
2013,07,14,09,40,18.90
2013,07,14,09,41,18.90
2013,07,14,09,42,19.00
2013,07,14,09,43,19.10
2013,07,14,09,44,18.90
2013,07,14,09,45,18.90
2013,07,14,09,46,18.70
2013,07,14,09,47,18.60
2013,07,14,09,48,18.60
2013,07,14,09,49,18.60
2013,07,14,09,50,18.70
2013,07,14,09,51,18.80
2013,07,14,09,52,18.90
2013,07,14,09,53,19.10
2013,07,14,09,54,19.10
2013,07,14,09,55,19.10
2013,07,14,09,56,19.10
2013,07,14,09,57,19.20
2013,07,14,09,58,19.20
2013,07,14,09,59,19.30
2013,07,14,10,00,19.40
2013,07,14,10,01,19.40
2013,07,14,10,02,19.40
2013,07,14,10,03,19.40
2013,07,14,10,04,19.50
2013,07,14,10,05,19.50
2013,07,14,10,06,19.50
2013,07,14,10,07,19.60
2013,07,14,10,08,19.60
2013,07,14,10,09,19.60
2013,07,14,10,10,19.70
2013,07,14,10,11,19.80
2013,07,14,10,12,19.90
2013,07,14,10,13,19.80
2013,07,14,10,14,19.70
2013,07,14,10,15,19.70
2013,07,14,10,16,19.70
2013,07,14,10,17,19.60
2013,07,14,10,18,19.50
2013,07,14,10,19,19.50
2013,07,14,10,20,19.60
2013,07,14,10,21,19.60
2013,07,14,10,22,19.70
2013,07,14,10,23,19.60
2013,07,14,10,24,19.60
2013,07,14,10,25,19.60
2013,07,14,10,26,19.30
2013,07,14,10,27,19.10
2013,07,14,10,28,19.10
2013,07,14,10,29,19.00
2013,07,14,10,30,19.10
2013,07,14,10,31,19.10
2013,07,14,10,32,19.10
2013,07,14,10,33,19.10
2013,07,14,10,34,19.30
2013,07,14,10,35,19.40
2013,07,14,10,36,19.50
2013,07,14,10,37,19.60
2013,07,14,10,38,19.70
2013,07,14,10,39,19.80
2013,07,14,10,40,19.90
2013,07,14,10,41,20.00
2013,07,14,10,42,20.10
2013,07,14,10,43,20.20
2013,07,14,10,44,20.20
2013,07,14,10,45,20.20
2013,07,14,10,46,20.20
2013,07,14,10,47,20.20
2013,07,14,10,48,20.10
2013,07,14,10,49,20.00
2013,07,14,10,50,19.90
2013,07,14,10,51,19.70
2013,07,14,10,52,19.60
2013,07,14,10,53,19.60
2013,07,14,10,54,19.50
2013,07,14,10,55,19.40
2013,07,14,10,56,19.50
2013,07,14,10,57,19.50
2013,07,14,10,58,19.60
2013,07,14,10,59,19.50
2013,07,14,11,00,19.40
2013,07,14,11,01,19.40
2013,07,14,11,02,19.40
2013,07,14,11,03,19.40
2013,07,14,11,04,19.50
2013,07,14,11,05,19.50
2013,07,14,11,06,19.60
2013,07,14,11,07,19.60
2013,07,14,11,08,19.70
2013,07,14,11,09,19.90
2013,07,14,11,10,20.00
2013,07,14,11,11,20.10
2013,07,14,11,12,20.10
2013,07,14,11,13,20.20
2013,07,14,11,14,20.20
2013,07,14,11,15,20.20
2013,07,14,11,16,20.30
2013,07,14,11,17,20.40
2013,07,14,11,18,20.50
2013,07,14,11,19,20.50
2013,07,14,11,20,20.60
2013,07,14,11,21,20.60
2013,07,14,11,22,20.70
2013,07,14,11,23,20.70
2013,07,14,11,24,20.70
2013,07,14,11,25,20.70
2013,07,14,11,26,20.70
2013,07,14,11,27,20.50
2013,07,14,11,28,20.40
2013,07,14,11,29,20.20
2013,07,14,11,30,20.20
2013,07,14,11,31,20.00
2013,07,14,11,32,19.90
2013,07,14,11,33,19.90
2013,07,14,11,34,19.90
2013,07,14,11,35,20.00
2013,07,14,11,36,20.10
2013,07,14,11,37,20.00
2013,07,14,11,38,19.90
2013,07,14,11,39,20.00
2013,07,14,11,40,20.10
2013,07,14,11,41,20.10
2013,07,14,11,42,20.20
2013,07,14,11,43,20.30
2013,07,14,11,44,20.30
2013,07,14,11,45,20.40
2013,07,14,11,46,20.40
2013,07,14,11,47,20.50
2013,07,14,11,48,20.50
2013,07,14,11,49,20.50
2013,07,14,11,50,20.50
2013,07,14,11,51,20.60
2013,07,14,11,52,20.60
2013,07,14,11,53,20.70
2013,07,14,11,54,20.50
2013,07,14,11,55,20.40
2013,07,14,11,56,20.40
2013,07,14,11,57,20.40
2013,07,14,11,58,20.40
2013,07,14,11,59,20.40
2013,07,14,12,00,20.40
2013,07,14,12,01,20.40
2013,07,14,12,02,20.40
2013,07,14,12,03,20.40
2013,07,14,12,04,20.40
2013,07,14,12,05,20.30
2013,07,14,12,06,20.20
2013,07,14,12,07,20.30
2013,07,14,12,08,20.40
2013,07,14,12,09,20.50
2013,07,14,12,10,20.50
2013,07,14,12,11,20.20
2013,07,14,12,12,20.10
2013,07,14,12,13,20.00
2013,07,14,12,14,20.10
2013,07,14,12,15,20.10
2013,07,14,12,16,20.10
2013,07,14,12,17,20.10
2013,07,14,12,18,19.90
2013,07,14,12,19,19.90
2013,07,14,12,20,20.00
2013,07,14,12,21,20.10
2013,07,14,12,22,20.30
2013,07,14,12,23,20.40
2013,07,14,12,24,20.50
2013,07,14,12,25,20.60
2013,07,14,12,26,20.50
2013,07,14,12,27,20.50
2013,07,14,12,28,20.50
2013,07,14,12,29,20.50
2013,07,14,12,30,20.60
2013,07,14,12,31,20.70
2013,07,14,12,32,20.80
2013,07,14,12,33,20.80
2013,07,14,12,34,20.70
2013,07,14,12,35,20.60
2013,07,14,12,36,20.60
2013,07,14,12,37,20.50
2013,07,14,12,38,20.50
2013,07,14,12,39,20.50
2013,07,14,12,40,20.50
2013,07,14,12,41,20.40
2013,07,14,12,42,20.40
2013,07,14,12,43,20.50
2013,07,14,12,44,20.40
2013,07,14,12,45,20.30
2013,07,14,12,46,20.40
2013,07,14,12,47,20.40
2013,07,14,12,48,20.40
2013,07,14,12,49,20.20
2013,07,14,12,50,20.20
2013,07,14,12,51,20.30
2013,07,14,12,52,20.40
2013,07,14,12,53,20.50
2013,07,14,12,54,20.60
2013,07,14,12,55,20.80
2013,07,14,12,56,20.90
2013,07,14,12,57,21.10
2013,07,14,12,58,21.20
2013,07,14,12,59,21.30
2013,07,14,13,00,21.40
2013,07,14,13,01,21.60
2013,07,14,13,02,21.70
2013,07,14,13,03,21.80
2013,07,14,13,04,21.90
2013,07,14,13,05,21.90
2013,07,14,13,06,22.00
2013,07,14,13,07,22.10
2013,07,14,13,08,22.30
2013,07,14,13,09,22.50
2013,07,14,13,10,22.50
2013,07,14,13,11,22.60
2013,07,14,13,12,22.60
2013,07,14,13,13,22.80
2013,07,14,13,14,22.90
2013,07,14,13,15,22.90
2013,07,14,13,16,22.90
2013,07,14,13,17,22.90
2013,07,14,13,18,23.00
2013,07,14,13,19,23.10
2013,07,14,13,20,23.20
2013,07,14,13,21,23.20
2013,07,14,13,22,23.20
2013,07,14,13,23,23.20
2013,07,14,13,24,23.20
2013,07,14,13,25,23.20
2013,07,14,13,26,23.20
2013,07,14,13,27,23.20
2013,07,14,13,28,23.10
2013,07,14,13,29,23.00
2013,07,14,13,30,22.90
2013,07,14,13,31,22.80
2013,07,14,13,32,22.70
2013,07,14,13,33,22.70
2013,07,14,13,34,22.70
2013,07,14,13,35,22.90
2013,07,14,13,36,22.90
2013,07,14,13,37,22.90
2013,07,14,13,38,22.60
2013,07,14,13,39,22.40
2013,07,14,13,40,22.30
2013,07,14,13,41,22.20
2013,07,14,13,42,22.10
2013,07,14,13,43,22.10
2013,07,14,13,44,22.10
2013,07,14,13,45,22.10
2013,07,14,13,46,21.70
2013,07,14,13,47,21.40
2013,07,14,13,48,21.30
2013,07,14,13,49,21.20
2013,07,14,13,50,21.20
2013,07,14,13,51,21.30
2013,07,14,13,52,21.20
2013,07,14,13,53,20.90
2013,07,14,13,54,20.70
2013,07,14,13,55,20.50
2013,07,14,13,56,20.30
2013,07,14,13,57,20.20
2013,07,14,13,58,20.20
2013,07,14,13,59,20.10
2013,07,14,14,00,19.90
2013,07,14,14,01,19.70
2013,07,14,14,02,19.40
2013,07,14,14,03,19.10
2013,07,14,14,04,18.90
2013,07,14,14,05,18.70
2013,07,14,14,06,18.60
2013,07,14,14,07,18.50
2013,07,14,14,08,18.30
2013,07,14,14,09,18.20
2013,07,14,14,10,18.10
2013,07,14,14,11,18.10
2013,07,14,14,12,18.00
2013,07,14,14,13,17.80
2013,07,14,14,14,17.80
2013,07,14,14,15,17.90
2013,07,14,14,16,18.00
2013,07,14,14,17,18.10
2013,07,14,14,18,18.10
2013,07,14,14,19,18.10
2013,07,14,14,20,18.10
2013,07,14,14,21,18.20
2013,07,14,14,22,18.20
2013,07,14,14,23,18.20
2013,07,14,14,24,18.20
2013,07,14,14,25,18.20
2013,07,14,14,26,18.20
2013,07,14,14,27,18.00
2013,07,14,14,28,17.80
2013,07,14,14,29,17.50
2013,07,14,14,30,17.50
2013,07,14,14,31,17.60
2013,07,14,14,32,17.70
2013,07,14,14,33,17.70
2013,07,14,14,34,17.70
2013,07,14,14,35,17.80
2013,07,14,14,36,17.80
2013,07,14,14,37,17.90
2013,07,14,14,38,18.00
2013,07,14,14,39,18.20
2013,07,14,14,40,18.20
2013,07,14,14,41,18.20
2013,07,14,14,42,18.40
2013,07,14,14,43,18.50
2013,07,14,14,44,18.70
2013,07,14,14,45,18.90
2013,07,14,14,46,19.00
2013,07,14,14,47,19.10
2013,07,14,14,48,19.40
2013,07,14,14,49,19.60
2013,07,14,14,50,19.90
2013,07,14,14,51,20.10
2013,07,14,14,52,20.30
2013,07,14,14,53,20.50
2013,07,14,14,54,20.70
2013,07,14,14,55,21.00
2013,07,14,14,56,21.20
2013,07,14,14,57,21.50
2013,07,14,14,58,21.80
2013,07,14,14,59,22.00
2013,07,14,15,00,22.20
2013,07,14,15,01,22.40
2013,07,14,15,02,22.60
2013,07,14,15,03,22.80
2013,07,14,15,04,22.90
2013,07,14,15,05,23.20
2013,07,14,15,06,23.40
2013,07,14,15,07,23.60
2013,07,14,15,08,23.90
2013,07,14,15,09,24.10
2013,07,14,15,10,24.40
2013,07,14,15,11,24.60
2013,07,14,15,12,24.70
2013,07,14,15,13,24.80
2013,07,14,15,14,24.90
2013,07,14,15,15,25.00
2013,07,14,15,16,25.20
2013,07,14,15,17,25.30
2013,07,14,15,18,25.30
2013,07,14,15,19,25.40
2013,07,14,15,20,25.40
2013,07,14,15,21,25.40
2013,07,14,15,22,25.40
2013,07,14,15,23,25.40
2013,07,14,15,24,25.40
2013,07,14,15,25,25.40
2013,07,14,15,26,25.40
2013,07,14,15,27,25.40
2013,07,14,15,28,25.40
2013,07,14,15,29,25.30
2013,07,14,15,30,25.20
2013,07,14,15,31,25.10
2013,07,14,15,32,25.10
2013,07,14,15,33,25.10
2013,07,14,15,34,25.10
2013,07,14,15,35,25.10
2013,07,14,15,36,25.10
2013,07,14,15,37,25.10
2013,07,14,15,38,25.10
2013,07,14,15,39,25.10
2013,07,14,15,40,25.10
2013,07,14,15,41,25.10
2013,07,14,15,42,25.20
2013,07,14,15,43,25.20
2013,07,14,15,44,25.20
2013,07,14,15,45,25.20
2013,07,14,15,46,25.20
2013,07,14,15,47,25.20
2013,07,14,15,48,25.10
2013,07,14,15,49,25.20
2013,07,14,15,50,25.20
2013,07,14,15,51,25.30
2013,07,14,15,52,25.30
2013,07,14,15,53,25.20
2013,07,14,15,54,25.20
2013,07,14,15,55,25.10
2013,07,14,15,56,25.10
2013,07,14,15,57,25.10
2013,07,14,15,58,25.00
2013,07,14,15,59,24.90
2013,07,14,16,00,24.90
2013,07,14,16,01,24.90
2013,07,14,16,02,24.80
2013,07,14,16,03,24.90
2013,07,14,16,04,24.90
2013,07,14,16,05,25.00
2013,07,14,16,06,24.90
2013,07,14,16,07,24.90
2013,07,14,16,08,24.80
2013,07,14,16,09,24.80
2013,07,14,16,10,24.80
2013,07,14,16,11,24.80
2013,07,14,16,12,24.90
2013,07,14,16,13,24.90
2013,07,14,16,14,25.00
2013,07,14,16,15,25.10
2013,07,14,16,16,25.20
2013,07,14,16,17,25.20
2013,07,14,16,18,25.20
2013,07,14,16,19,25.20
2013,07,14,16,20,25.20
2013,07,14,16,21,25.10
2013,07,14,16,22,25.10
2013,07,14,16,23,25.10
2013,07,14,16,24,25.10
2013,07,14,16,25,25.20
2013,07,14,16,26,25.20
2013,07,14,16,27,25.20
2013,07,14,16,28,25.20
2013,07,14,16,29,25.10
2013,07,14,16,30,25.20
2013,07,14,16,31,25.10
2013,07,14,16,32,25.10
2013,07,14,16,33,25.00
2013,07,14,16,34,25.00
2013,07,14,16,35,25.10
2013,07,14,16,36,25.10
2013,07,14,16,37,25.10
2013,07,14,16,38,25.00
2013,07,14,16,39,24.90
2013,07,14,16,40,24.80
2013,07,14,16,41,24.80
2013,07,14,16,42,24.70
2013,07,14,16,43,24.60
2013,07,14,16,44,24.60
2013,07,14,16,45,24.60
2013,07,14,16,46,24.60
2013,07,14,16,47,24.60
2013,07,14,16,48,24.60
2013,07,14,16,49,24.50
2013,07,14,16,50,24.50
2013,07,14,16,51,24.40
2013,07,14,16,52,24.40
2013,07,14,16,53,24.40
2013,07,14,16,54,24.40
2013,07,14,16,55,24.30
2013,07,14,16,56,24.30
2013,07,14,16,57,24.40
2013,07,14,16,58,24.30
2013,07,14,16,59,24.30
2013,07,14,17,00,24.20
2013,07,14,17,01,24.30
2013,07,14,17,02,24.30
2013,07,14,17,03,24.30
2013,07,14,17,04,24.30
2013,07,14,17,05,24.30
2013,07,14,17,06,24.40
2013,07,14,17,07,24.50
2013,07,14,17,08,24.50
2013,07,14,17,09,24.50
2013,07,14,17,10,24.50
2013,07,14,17,11,24.50
2013,07,14,17,12,24.40
2013,07,14,17,13,24.40
2013,07,14,17,14,24.40
2013,07,14,17,15,24.40
2013,07,14,17,16,24.30
2013,07,14,17,17,24.30
2013,07,14,17,18,24.30
2013,07,14,17,19,24.30
2013,07,14,17,20,24.40
2013,07,14,17,21,24.40
2013,07,14,17,22,24.30
2013,07,14,17,23,24.20
2013,07,14,17,24,24.20
2013,07,14,17,25,24.20
2013,07,14,17,26,24.10
2013,07,14,17,27,24.10
2013,07,14,17,28,24.00
2013,07,14,17,29,23.90
2013,07,14,17,30,23.80
2013,07,14,17,31,23.80
2013,07,14,17,32,23.90
2013,07,14,17,33,23.90
2013,07,14,17,34,23.90
2013,07,14,17,35,23.90
2013,07,14,17,36,23.90
2013,07,14,17,37,23.90
2013,07,14,17,38,23.90
2013,07,14,17,39,24.10
2013,07,14,17,40,24.10
2013,07,14,17,41,24.10
2013,07,14,17,42,24.20
2013,07,14,17,43,24.20
2013,07,14,17,44,24.20
2013,07,14,17,45,24.20
2013,07,14,17,46,24.20
2013,07,14,17,47,24.10
2013,07,14,17,48,24.10
2013,07,14,17,49,24.10
2013,07,14,17,50,24.10
2013,07,14,17,51,24.00
2013,07,14,17,52,23.90
2013,07,14,17,53,23.90
2013,07,14,17,54,23.80
2013,07,14,17,55,23.70
2013,07,14,17,56,23.70
2013,07,14,17,57,23.70
2013,07,14,17,58,23.70
2013,07,14,17,59,23.70
2013,07,14,18,00,23.70
2013,07,14,18,01,23.70
2013,07,14,18,02,23.70
2013,07,14,18,03,23.70
2013,07,14,18,04,23.60
2013,07,14,18,05,23.50
2013,07,14,18,06,23.40
2013,07,14,18,07,23.30
2013,07,14,18,08,23.30
2013,07,14,18,09,23.30
2013,07,14,18,10,23.40
2013,07,14,18,11,23.40
2013,07,14,18,12,23.40
2013,07,14,18,13,23.40
2013,07,14,18,14,23.30
2013,07,14,18,15,23.30
2013,07,14,18,16,23.30
2013,07,14,18,17,23.20
2013,07,14,18,18,23.20
2013,07,14,18,19,23.20
2013,07,14,18,20,23.20
2013,07,14,18,21,23.20
2013,07,14,18,22,23.20
2013,07,14,18,23,23.30
2013,07,14,18,24,23.30
2013,07,14,18,25,23.30
2013,07,14,18,26,23.40
2013,07,14,18,27,23.50
2013,07,14,18,28,23.40
2013,07,14,18,29,23.40
2013,07,14,18,30,23.40
2013,07,14,18,31,23.30
2013,07,14,18,32,23.30
2013,07,14,18,33,23.30
2013,07,14,18,34,23.20
2013,07,14,18,35,23.20
2013,07,14,18,36,23.20
2013,07,14,18,37,23.20
2013,07,14,18,38,23.30
2013,07,14,18,39,23.30
2013,07,14,18,40,23.30
2013,07,14,18,41,23.30
2013,07,14,18,42,23.30
2013,07,14,18,43,23.30
2013,07,14,18,44,23.40
2013,07,14,18,45,23.40
2013,07,14,18,46,23.50
2013,07,14,18,47,23.60
2013,07,14,18,48,23.50
2013,07,14,18,49,23.40
2013,07,14,18,50,23.30
2013,07,14,18,51,23.20
2013,07,14,18,52,23.00
2013,07,14,18,53,22.80
2013,07,14,18,54,22.60
2013,07,14,18,55,22.40
2013,07,14,18,56,22.30
2013,07,14,18,57,22.20
2013,07,14,18,58,22.10
2013,07,14,18,59,22.00
2013,07,14,19,00,21.90
2013,07,14,19,01,21.80
2013,07,14,19,02,21.80
2013,07,14,19,03,21.70
2013,07,14,19,04,21.60
2013,07,14,19,05,21.60
2013,07,14,19,06,21.60
2013,07,14,19,07,21.60
2013,07,14,19,08,21.60
2013,07,14,19,09,21.60
2013,07,14,19,10,21.60
2013,07,14,19,11,21.60
2013,07,14,19,12,21.60
2013,07,14,19,13,21.60
2013,07,14,19,14,21.60
2013,07,14,19,15,21.60
2013,07,14,19,16,21.60
2013,07,14,19,17,21.60
2013,07,14,19,18,21.60
2013,07,14,19,19,21.60
